Aérodrome :
LOGIN :

S'inscrire | Disclaimer

   EN    FR    IT 

 










Légende :    VFR   VFR Marginal   IFR   IFR Intensif   IFR Très Intensif
Visi : 
Plafond : 
>= 8 km
>= 3000ft
5 à 8 km
1000 à 3000 ft
1500m à 5 km
500 à 1000 ft
800 à 1500m
200 à 500 ft
< 800m
< 200 ft
Symboles :   Orages  Brouillard  Fortes neiges  Fortes précipitations  Vent > 20 kt
SIGMETs :   Divers  Orages  Givrage  Turbulence  Onde Orograph.  Cendres Volcan.







- Altitude de l'aérodrome : 47 ft
- Code IATA : CBG
- Voir les cartes d'approche


EGSC - Cambridge

DERNIER METAR :
  • 230750Z 27013G24KT 9999 FEW022 17/11 Q1014

METARs EXPIRÉS :
  • 230720Z 26016KT 230V290 9999 FEW020 16/11 Q1014
  • 230650Z 26012KT 210V290 9999 FEW020 16/11 Q1014

TAF AMD TAF EGSC
Valide du 23 à 08h jusqu'au 23 à 15h UTC


230800Z 2308/2315 25014KT 9999 SCT025
TEMPO 2308/2315 25017G27KT
Pas de NOTAMs connus pour ce terrain.



MET'MAP, la Météo Aéronautique d'un coup d'oeil ! - Copyright ORBIFLY Décembre 2007 - Disclaimer

ORBIFLY MET'MAP TEAM :

Programmation & Développement : Alexandra Zaïnal
Conception & Développement : Baudouin d'Aumeries
Co-Programmation & Développement : Marc-Olivier Méhu
Soutien technique & logistique : Manuel Goepfert

Contact : metmap@orbifly.com




SOURCES & CREDITS :

   NOAA